Location: Franzen
(48.6167°N, 15.3833°E)
Time: 13:42:19
(UTC+00:00)

Timation 1 Rocket - Pass Details

Date: 22 April 2021
Orbit: 900 x 907 km, 70.0° (Epoch: 16 May)

Event Time Altitude Azimuth Distance (km) Brightness Sun altitude
Exits shadow 19:55:44 - 194° (SSW) 3,540 7.2 -17.0°
Rises 19:55:49 0° 194° (SSW) 3,510 7.1 -17.0°
Reaches altitude 10° 19:58:20 10° 191° (S) 2,573 6.4 -17.3°
Maximum altitude 20:04:09 59° 113° (ESE) 1,033 4.3 -18.0°
Drops below altitude 10° 20:10:00 10° 36° (NE) 2,586 6.9 -18.6°
Sets 20:12:32 0° 33° (NNE) 3,531 7.6 -18.9°
